Location: Sternwarte ZA, Rosenfeld-Brittheim
(48.2889°N, 8.6789°E)
Time: 08:30:53
(UTC+02:00)

ISS - Pass Details

Date: 20 May 2021
Orbit: 417 x 422 km, 51.6° (Epoch: 18 June)

Event Time Altitude Azimuth Distance (km) Brightness Sun altitude
Rises 01:18:19 0° 291° (WNW) 2,371 0.4 -21.7°
Reaches altitude 10° 01:20:25 10° 293° (WNW) 1,506 -0.7 -21.7°
Enters shadow 01:22:54 45° 301° (WNW) 582 -2.9 -21.7°
